• In Hungary
  • List of Countries
  • For 7 days
  • Water Temperature
  • Satellite Maps
  • Weather Map
  • News
  • Weather Widgets
  • user-avatar
    Login

    Hourly Weather Maciejowa

    Today, 19 January, Friday

    Time Temperature Precipitation Wind Pressure Humidity
    00:00 -1°C° 0 mm 6 mps 710 mmHg 72%
    01:00 -1°C° 0 mm 4 mps 710 mmHg 78%
    02:00 -1°C° 0.1 mm 4 mps 710 mmHg 77%
    03:00 -1°C° 0.1 mm 5 mps 710 mmHg 77%
    04:00 -1°C° 0.1 mm 5 mps 710 mmHg 77%
    05:00 -2°C° 0 mm 5 mps 711 mmHg 77%
    06:00 -2°C° 0 mm 5 mps 711 mmHg 78%
    07:00 -2°C° 0 mm 4 mps 712 mmHg 80%
    08:00 -2°C° 0 mm 5 mps 713 mmHg 76%
    09:00 -1°C° 0 mm 5 mps 713 mmHg 72%
    10:00 -1°C° 0 mm 6 mps 714 mmHg 68%
    11:00 0°C° 0 mm 5 mps 715 mmHg 67%
    12:00 0°C° 0 mm 5 mps 715 mmHg 65%
    13:00 +1°C° 0 mm 5 mps 716 mmHg 64%
    14:00 0°C° 0 mm 4 mps 716 mmHg 70%
    15:00 0°C° 0 mm 3 mps 716 mmHg 75%
    16:00 -1°C° 0 mm 2 mps 716 mmHg 81%
    17:00 -2°C° 0 mm 2 mps 717 mmHg 84%
    18:00 0°C° 0 mm 1 mps 717 mmHg 87%
    19:00 -1°C° 0 mm 1 mps 717 mmHg 90%
    20:00 -1°C° 0 mm 1 mps 718 mmHg 90%
    21:00 -1°C° 0 mm 1 mps 718 mmHg 90%
    22:00 -1°C° 0 mm 1 mps 719 mmHg 90%
    23:00 -1°C° 0 mm 1 mps 719 mmHg 89%

    Tomorrow, 20 January, Saturday

    Time Temperature Precipitation Wind Pressure Humidity
    00:00 -1°C° 0 mm 1 mps 719 mmHg 89%
    01:00 -1°C° 0 mm 1 mps 719 mmHg 88%
    02:00 -1°C° 0 mm 1 mps 719 mmHg 88%
    03:00 -2°C° 0 mm 1 mps 719 mmHg 88%
    04:00 -2°C° 0 mm 1 mps 719 mmHg 88%
    05:00 -2°C° 0 mm 1 mps 719 mmHg 87%
    06:00 -2°C° 0 mm 1 mps 719 mmHg 87%
    07:00 -2°C° 0 mm 1 mps 719 mmHg 86%
    08:00 -1°C° 0 mm 1 mps 719 mmHg 82%
    09:00 0°C° 0 mm 1 mps 719 mmHg 77%
    10:00 +1°C° 0 mm 1 mps 719 mmHg 73%
    11:00 +1°C° 0 mm 1 mps 719 mmHg 71%
    12:00 +2°C° 0 mm 1 mps 718 mmHg 68%
    13:00 +2°C° 0 mm 1 mps 718 mmHg 66%
    14:00 +2°C° 0 mm 1 mps 718 mmHg 71%
    15:00 +1°C° 0 mm 1 mps 717 mmHg 75%
    16:00 +1°C° 0 mm 1 mps 717 mmHg 79%
    17:00 0°C° 0 mm 1 mps 717 mmHg 82%
    18:00 0°C° 0 mm 1 mps 717 mmHg 86%
    19:00 -1°C° 0 mm 1 mps 717 mmHg 89%
    20:00 -1°C° 0.2 mm 1 mps 716 mmHg 90%
    21:00 -1°C° 0.2 mm 1 mps 716 mmHg 91%
    22:00 -1°C° 0.2 mm 1 mps 716 mmHg 92%
    23:00 -1°C° 0.1 mm 1 mps 716 mmHg 92%

    Day after tomorrow, 21 January, Sunday

    Time Temperature Precipitation Wind Pressure Humidity
    00:00 -1°C° 0.1 mm 1 mps 716 mmHg 93%
    01:00 -1°C° 0.1 mm 1 mps 716 mmHg 93%
    02:00 -1°C° 0.2 mm 1 mps 716 mmHg 93%
    03:00 -1°C° 0.2 mm 1 mps 716 mmHg 93%
    04:00 -1°C° 0.2 mm 1 mps 716 mmHg 94%
    05:00 -1°C° 0.4 mm 1 mps 716 mmHg 94%
    06:00 -1°C° 0.4 mm 1 mps 716 mmHg 94%
    07:00 -1°C° 0.4 mm 1 mps 716 mmHg 94%
    08:00 0°C° 0.5 mm 1 mps 716 mmHg 93%
    09:00 -2°C° 0.5 mm 2 mps 716 mmHg 92%
    10:00 -2°C° 0.5 mm 2 mps 717 mmHg 91%
    11:00 -2°C° 0.6 mm 2 mps 716 mmHg 92%
    12:00 -2°C° 0.6 mm 2 mps 716 mmHg 92%
    13:00 -2°C° 0.6 mm 2 mps 716 mmHg 92%
    14:00 -2°C° 0.6 mm 2 mps 717 mmHg 93%
    15:00 -2°C° 0.6 mm 3 mps 717 mmHg 93%
    16:00 -2°C° 0.6 mm 3 mps 717 mmHg 94%
    17:00 -4°C° 0.3 mm 3 mps 718 mmHg 93%
    18:00 -4°C° 0.3 mm 3 mps 719 mmHg 92%
    19:00 -4°C° 0.3 mm 4 mps 719 mmHg 91%
    20:00 -4°C° 0.1 mm 4 mps 720 mmHg 91%
    21:00 -5°C° 0.1 mm 4 mps 720 mmHg 91%
    22:00 -5°C° 0.1 mm 4 mps 721 mmHg 90%
    23:00 -5°C° 0.1 mm 4 mps 721 mmHg 91%

    22 January, Monday

    Time Temperature Precipitation Wind Pressure Humidity
    00:00 -5°C° 0.1 mm 4 mps 721 mmHg 91%
    01:00 -5°C° 0.1 mm 3 mps 722 mmHg 91%
    02:00 -6°C° 0.1 mm 3 mps 722 mmHg 92%
    03:00 -6°C° 0.1 mm 3 mps 722 mmHg 92%
    04:00 -6°C° 0.1 mm 3 mps 723 mmHg 93%
    05:00 -5°C° 0.1 mm 2 mps 723 mmHg 93%
    06:00 -5°C° 0.1 mm 2 mps 724 mmHg 93%
    07:00 -5°C° 0.1 mm 2 mps 724 mmHg 93%
    08:00 -5°C° 0 mm 2 mps 724 mmHg 91%
    09:00 -4°C° 0 mm 2 mps 725 mmHg 88%
    10:00 -2°C° 0 mm 1 mps 725 mmHg 86%
    11:00 -2°C° 0 mm 1 mps 725 mmHg 83%
    12:00 -1°C° 0 mm 1 mps 725 mmHg 81%
    13:00 -1°C° 0 mm 1 mps 724 mmHg 78%
    14:00 -1°C° 0 mm 1 mps 724 mmHg 81%
    15:00 -4°C° 0 mm 2 mps 724 mmHg 83%
    16:00 -4°C° 0 mm 2 mps 724 mmHg 86%
    17:00 -5°C° 0 mm 2 mps 724 mmHg 87%
    18:00 -6°C° 0 mm 2 mps 725 mmHg 88%
    19:00 -6°C° 0 mm 2 mps 725 mmHg 89%
    20:00 -6°C° 0 mm 2 mps 725 mmHg 89%
    21:00 -7°C° 0 mm 2 mps 725 mmHg 89%
    22:00 -7°C° 0 mm 2 mps 725 mmHg 89%
    23:00 -7°C° 0 mm 2 mps 725 mmHg 88%

    23 January, Tuesday

    Time Temperature Precipitation Wind Pressure Humidity
    00:00 -6°C° 0 mm 2 mps 725 mmHg 88%
    01:00 -6°C° 0 mm 2 mps 725 mmHg 87%
    02:00 -6°C° 0 mm 2 mps 725 mmHg 87%
    03:00 -6°C° 0 mm 2 mps 725 mmHg 87%
    04:00 -7°C° 0 mm 2 mps 725 mmHg 88%
    05:00 -6°C° 0 mm 2 mps 725 mmHg 87%
    06:00 -6°C° 0 mm 2 mps 725 mmHg 87%
    07:00 -5°C° 0 mm 2 mps 726 mmHg 87%
    08:00 -5°C° 0.1 mm 2 mps 726 mmHg 87%
    09:00 -4°C° 0.1 mm 2 mps 727 mmHg 87%
    10:00 -3°C° 0.1 mm 2 mps 727 mmHg 86%
    11:00 -3°C° 0.1 mm 2 mps 728 mmHg 86%
    12:00 -2°C° 0.1 mm 2 mps 728 mmHg 86%
    13:00 -2°C° 0.1 mm 2 mps 728 mmHg 86%
    14:00 -2°C° 0.1 mm 2 mps 729 mmHg 88%
    15:00 -2°C° 0.1 mm 2 mps 729 mmHg 89%
    16:00 0°C° 0.1 mm 1 mps 729 mmHg 91%
    17:00 0°C° 0.1 mm 1 mps 730 mmHg 91%
    18:00 -2°C° 0.1 mm 2 mps 730 mmHg 92%
    19:00 -2°C° 0.1 mm 2 mps 730 mmHg 92%
    20:00 -2°C° 0 mm 2 mps 731 mmHg 92%
    21:00 -3°C° 0 mm 2 mps 731 mmHg 92%
    22:00 -3°C° 0 mm 2 mps 731 mmHg 92%
    23:00 -3°C° 0 mm 2 mps 731 mmHg 92%

    24 January, Wednesday

    Time Temperature Precipitation Wind Pressure Humidity
    00:00 -4°C° 0 mm 2 mps 731 mmHg 92%
    01:00 -4°C° 0 mm 2 mps 732 mmHg 92%
    02:00 -4°C° 0 mm 2 mps 732 mmHg 91%
    03:00 -4°C° 0 mm 2 mps 732 mmHg 91%
    04:00 -4°C° 0 mm 2 mps 732 mmHg 91%
    05:00 -4°C° 0 mm 2 mps 732 mmHg 90%
    06:00 -4°C° 0 mm 2 mps 732 mmHg 90%
    07:00 -3°C° 0 mm 2 mps 732 mmHg 89%
    08:00 -3°C° 0 mm 2 mps 733 mmHg 89%
    09:00 -2°C° 0 mm 2 mps 733 mmHg 89%
    10:00 -1°C° 0 mm 2 mps 733 mmHg 88%
    11:00 +1°C° 0 mm 2 mps 733 mmHg 89%
    12:00 +2°C° 0 mm 2 mps 733 mmHg 90%
    13:00 +2°C° 0 mm 2 mps 733 mmHg 91%
    14:00 +2°C° 0 mm 2 mps 733 mmHg 91%
    15:00 +1°C° 0 mm 2 mps 733 mmHg 92%
    16:00 +1°C° 0 mm 2 mps 733 mmHg 92%
    17:00 -1°C° 0 mm 2 mps 734 mmHg 92%
    18:00 -2°C° 0 mm 2 mps 734 mmHg 93%
    19:00 -2°C° 0 mm 2 mps 734 mmHg 93%
    20:00 -2°C° 0 mm 2 mps 734 mmHg 93%
    21:00 -2°C° 0 mm 2 mps 734 mmHg 93%
    22:00 -2°C° 0 mm 2 mps 734 mmHg 93%
    23:00 -2°C° 0 mm 2 mps 734 mmHg 93%
    Show more